[[{"header":{"parameterUnit":"m.s-1","parameterCategory":1,"la1":30.2991,"la2":30.254,"lo1":-89.0895,"lo2":-89.0444,"dy":0.0017,"dx":0.0017,"nx":28,"ny":28,"refTime":"2023-03-13T21:00:00:Z","depth":0,"parameterNumber":2,"parameterNumberName":"U-component_of_WINDS"},"data":[0,0,0,0,0,0,0,0,0,0,0,0,0,0,0,0,0,0,0,0,0,0,0,0,0,0,0,0,0,0,0,0,0,0,0,0,0,0,0,0,0,0,0,0,0,0,0,0,0,0,0,0,0,0,0,0,0,0,-2.9917,-2.9917,0,-3.0006,-3.0007,-3.0008,-2.993,-2.9927,-2.9924,-2.9921,-3.001,-3.0015,-3.0021,0,0,0,0,0,0,0,0,0,0,0,0,0,-2.9673,-2.9678,-2.9916,-2.9918,-2.9919,-3.0006,-3.0007,-3.0009,-2.9931,-2.9927,-2.9923,-2.9919,-3.0008,-3.0015,-3.0021,0,0,0,0,0,0,0,0,0,0,0,0,0,-2.9773,-2.968,-2.9916,-2.989,-2.9889,-3.0006,-3.0007,-3.0009,-2.9931,-2.9927,-2.9922,-2.9917,-3.0006,-3.0014,-3.0022,-3.0169,0,0,-3.0047,-3.005,0,0,0,0,0,0,0,0,-2.9767,-2.9782,-2.9893,-2.9892,-2.9891,-2.9952,-2.9954,-3.0062,-2.9933,-2.9915,-2.992,-2.9915,-2.9995,-3.0003,-3.0031,-3.0173,-3.0177,-3.0048,-3.0052,-3.0056,-3.0058,0,0,0,0,0,0,0,-2.976,-2.9777,-2.9952,-2.9895,-2.9894,-2.9873,-2.9882,-2.9974,-2.9981,-2.9916,-2.9911,-2.9923,-2.9993,-3.0023,-3.0032,-3.0178,-3.0047,-3.0054,-3.0059,-3.0063,-3.0442,-3.0447,0,0,0,0,0,0,-2.9756,-2.9772,-2.9949,-2.9955,-2.9816,-2.9881,-2.9891,-2.9937,-2.998,-2.9981,-2.9927,-2.9919,-3.0012,-3.0023,-3.0035,-3.0209,-3.0056,-3.0063,-3.0068,-3.0437,-3.0443,-3.0449,0,0,0,0,0,0,-2.9752,-2.9773,-2.9945,-2.9862,-2.9882,-2.9891,-2.9943,-2.9942,-2.9972,-2.9987,-2.9988,-2.9957,-3.0008,-3.0024,-3.0136,-3.0211,-3.0067,-3.0074,-3.0431,-3.0439,-3.0446,-3.0558,0,0,0,0,0,0,-2.9745,-2.9772,-2.9829,-2.9864,-2.9887,-3.0046,-2.9948,-2.9947,-2.9986,-2.9976,-3.0016,-3.0017,-3.0006,-3.0124,-3.0144,-3.0219,-3.0081,-3.0424,-3.0435,-3.0444,-3.0548,-3.0569,-3.0586,0,0,0,0,0,-2.9737,-2.9856,-2.9832,-2.9854,-2.9959,-3.0051,-3.0064,-3.0049,-2.9992,-3.0049,-3.0059,-3.0016,-3.0199,-3.0136,-3.0158,-3.0237,-3.042,-3.0432,-3.0443,-3.0539,-3.0564,-3.0586,0,0,0,0,0,0,-2.983,-2.9861,-2.9834,-2.9969,-3.0008,-3.0037,-3.0109,-3.0077,-3.0132,-3.0121,-3.0098,-3.0108,-3.0226,-3.0242,-3.0171,-3.038,-3.03,-3.0317,-3.0365,-3.039,-3.0409,-3.0403,-3.0087,0,0,0,0,0,-2.9866,-2.994,-2.9962,-3.0079,-3.01,-3.0101,-3.014,-3.0125,-3.0164,-3.018,-3.0198,-3.0237,-3.0302,-3.0347,-3.0408,-3.0548,-3.0555,-3.0613,-3.0633,-3.0649,-3.0664,-3.0738,-3.0764,-3.0488,-3.0488,-3.0488,0,0,-2.9942,-2.9968,-3.0015,-3.0098,-3.0126,-3.0202,-3.0115,-3.0199,-3.0254,-3.0192,-3.03,-3.0314,-3.0355,-3.0482,-3.0539,-3.0499,-3.0741,-3.0664,-3.0676,-3.0683,-3.0753,-3.0779,-3.0802,-3.0496,-3.0494,-3.0493,0,0,-3.0119,-3.0146,-3.0246,-3.0276,-3.032,-3.0319,-3.0343,-3.0377,-3.0385,-3.0492,-3.0447,-3.0511,-3.0625,-3.0656,-3.0687,-3.0873,-3.0836,-3.0893,-3.0996,-3.1069,-3.109,-3.1109,-3.1176,-3.12,-3.0908,-3.0908,-3.0908,0,-3.0208,-3.0321,-3.0301,-3.0388,-3.0425,-3.0372,-3.0473,-3.0502,-3.0564,-3.059,-3.0545,-3.0686,-3.071,-3.0843,-3.0888,-3.0915,-3.094,-3.089,-3.1089,-3.1108,-3.1125,-3.1188,-3.1213,-3.0915,-3.0914,-3.0914,-3.0913,0,-3.0427,-3.0506,-3.0581,-3.0643,-3.0687,-3.0781,-3.0774,-3.0822,-3.0801,-3.0805,-3.0914,-3.0941,-3.1006,-3.1036,-3.1017,-3.1166,-3.114,-3.1092,-3.1012,-3.1159,-3.1217,-3.1241,-3.0925,-3.0922,-3.092,-3.0919,0,0,-3.0668,-3.0716,-3.0744,-3.0771,-3.0814,-3.0874,-3.0963,-3.1028,-3.1069,-3.1112,-3.1186,-3.1283,-3.1238,-3.1273,-3.1257,-3.132,-3.1465,-3.1265,-3.1265,-3.1301,-3.163,-3.1666,-3.1694,-3.144,-3.1444,-3.1448,-3.1626,0,-3.0847,-3.1005,-3.0989,-3.1138,-3.1209,-3.1159,-3.1236,-3.127,-3.1276,-3.1336,-3.134,-3.141,-3.1346,-3.1367,-3.1427,-3.1435,-3.1531,-3.1422,-3.1508,-3.1511,-3.1501,-3.1725,-3.1764,-3.1932,-3.1649,-3.1653,-3.1656,0,-3.1078,-3.113,-3.1287,-3.1317,-3.1347,-3.1417,-3.1474,-3.1533,-3.1569,-3.1568,-3.1606,-3.1578,-3.1666,-3.1583,-3.1703,-3.1629,-3.1663,-3.1671,-3.1677,-3.1686,-3.1594,-3.174,-3.1985,-3.201,-3.1692,-3.1689,-3.1686,0,-3.1239,-3.1347,-3.1455,-3.1479,-3.1518,-3.1568,-3.1586,-3.1618,-3.1657,-3.1706,-3.1731,-3.1789,-3.1821,-3.1866,-3.1854,-3.1794,-3.1977,-3.1892,-3.1978,-3.1978,-3.202,-3.2018,-3.2274,-3.204,-3.204,-3.2039,-3.2039,0,-3.1441,-3.1539,-3.1527,-3.1594,-3.1701,-3.168,-3.1786,-3.1798,-3.1826,-3.1892,-3.1851,-3.1914,-3.1893,-3.1954,-3.1944,-3.2045,-3.206,-3.2061,-3.2057,-3.2065,-3.2065,-3.2088,-3.2077,-3.2046,-3.2045,-3.2043,-3.2042,0,-3.164,-3.1636,-3.175,-3.1776,-3.1785,-3.1863,-3.1885,-3.1947,-3.1947,-3.2032,-3.205,-3.2051,-3.2121,-3.2112,-3.219,-3.2183,-3.2308,-3.229,-3.2297,-3.2293,-3.2379,-3.2371,-3.266,-3.2697,-3.2438,-3.2441,-3.2443,0,-3.177,-3.1844,-3.1879,-3.1921,-3.1942,-3.201,-3.205,-3.2031,-3.2073,-3.2119,-3.2175,-3.2241,-3.2293,-3.2406,-3.2413,-3.2471,-3.2455,-3.2552,-3.2463,-3.2469,-3.2457,-3.2453,-3.246,-3.257,-3.2573,-3.2575,-3.2577,0,-3.2002,-3.1996,-3.2055,-3.2114,-3.2162,-3.2207,-3.2247,-3.2283,-3.2268,-3.2317,-3.2388,-3.2429,-3.2507,-3.2573,-3.2628,-3.2644,-3.2608,-3.2604,-3.2627,-3.2637,-3.2638,-3.2639,-3.2345,-3.2598,-3.2596,-3.2595,-3.2593,-3.2593,-3.2171,-3.2234,-3.2268,-3.2334,-3.2363,-3.2401,-3.246,-3.2467,-3.2526,-3.259,-3.2574,-3.2654,-3.2686,-3.2756,-3.2778,-3.2839,-3.2803,-3.2837,-3.2845,-3.2854,-3.2864,-3.2627,-3.2849,-3.2848,-3.2847,-3.2847,-3.2846,0,-3.2401,-3.2419,-3.2481,-3.2539,-3.2591,-3.2552,-3.2594,-3.264,-3.2711,-3.2744,-3.2796,-3.2876,-3.2939,-3.295,-3.3009,-3.3056,-3.304,-3.3072,-3.3069,-3.3073,-3.2893,-3.2867,-3.3083,-3.3083,-3.3083,-3.3083,-3.3083,-3.3083,-3.2527,-3.2631,-3.2629,-3.2746,-3.2763,-3.2842,-3.2869,-3.2903,-3.2929,-3.3021,-3.3074,-3.308,-3.3104,-3.3164,-3.3219,-3.322,-3.3244,-3.3282,-3.3277,-3.3109,-3.3086,-3.3063,-3.3039,-3.3287,-3.3288,-3.3452,-3.3454,-3.3455]},{"header":{"parameterUnit":"m.s-1","parameterCategory":1,"la1":30.2991,"la2":30.254,"lo1":-89.0895,"lo2":-89.0444,"dy":0.0017,"dx":0.0017,"nx":28,"ny":28,"refTime":"2023-03-13T21:00:00:Z","depth":0,"parameterNumber":3,"parameterNumberName":"V-component_of_WINDS"},"data":[0,0,0,0,0,0,0,0,0,0,0,0,0,0,0,0,0,0,0,0,0,0,0,0,0,0,0,0,0,0,0,0,0,0,0,0,0,0,0,0,0,0,0,0,0,0,0,0,0,0,0,0,0,0,0,0,0,0,-7.0314,-7.0316,0,-7.047,-7.0472,-7.0474,-7.0409,-7.0405,-7.0401,-7.0398,-7.0551,-7.0559,-7.0566,0,0,0,0,0,0,0,0,0,0,0,0,0,-6.9953,-6.996,-7.0314,-7.0316,-7.0318,-7.047,-7.0472,-7.0474,-7.0409,-7.0405,-7.04,-7.0396,-7.0549,-7.0558,-7.0567,0,0,0,0,0,0,0,0,0,0,0,0,0,-7.011,-6.9963,-7.0314,-7.0304,-7.0305,-7.0469,-7.0472,-7.0475,-7.041,-7.0405,-7.0399,-7.0394,-7.0546,-7.0557,-7.0568,-7.0749,0,0,-7.0603,-7.0608,0,0,0,0,0,0,0,0,-7.0101,-7.0123,-7.0304,-7.0305,-7.0306,-7.0414,-7.0401,-7.0567,-7.0412,-7.037,-7.0398,-7.0391,-7.051,-7.0524,-7.0565,-7.0757,-7.0763,-7.0604,-7.0611,-7.0616,-7.0619,0,0,0,0,0,0,0,-7.009,-7.0116,-7.0376,-7.0306,-7.0308,-7.029,-7.0306,-7.0432,-7.0469,-7.0373,-7.0369,-7.0389,-7.0509,-7.0554,-7.0568,-7.0765,-7.0604,-7.0614,-7.0621,-7.0625,-7.111,-7.1116,0,0,0,0,0,0,-7.008,-7.0107,-7.0371,-7.038,-7.0188,-7.0301,-7.0319,-7.0385,-7.0468,-7.0475,-7.0393,-7.0385,-7.0538,-7.0555,-7.0573,-7.0789,-7.0615,-7.0626,-7.0633,-7.1104,-7.1112,-7.1118,0,0,0,0,0,0,-7.0073,-7.0104,-7.0364,-7.0243,-7.0274,-7.0313,-7.0388,-7.0391,-7.0436,-7.0483,-7.0488,-7.0433,-7.0534,-7.0557,-7.0706,-7.0794,-7.0631,-7.0641,-7.1097,-7.1107,-7.1115,-7.1224,0,0,0,0,0,0,-7.0063,-7.0102,-7.0173,-7.0245,-7.0281,-7.0497,-7.0394,-7.0398,-7.0456,-7.0447,-7.0521,-7.0528,-7.0532,-7.0689,-7.0717,-7.0807,-7.065,-7.1089,-7.1101,-7.1112,-7.1213,-7.1236,-7.1256,0,0,0,0,0,-7.005,-7.0197,-7.0177,-7.0209,-7.0371,-7.0502,-7.0523,-7.0525,-7.0464,-7.0534,-7.0564,-7.0526,-7.078,-7.0705,-7.0736,-7.083,-7.1084,-7.1098,-7.1111,-7.1203,-7.1231,-7.1255,0,0,0,0,0,0,-7.0133,-7.0206,-7.0185,-7.036,-7.0426,-7.0491,-7.058,-7.0555,-7.0638,-7.0626,-7.0623,-7.0641,-7.0794,-7.0826,-7.0742,-7.1008,-7.0922,-7.0943,-7.0982,-7.1009,-7.103,-7.1018,-7.066,0,0,0,0,0,-7.0172,-7.0274,-7.0332,-7.0481,-7.0515,-7.0542,-7.0599,-7.0595,-7.0662,-7.0689,-7.0729,-7.0794,-7.0888,-7.095,-7.1039,-7.1217,-7.1231,-7.1297,-7.1318,-7.1335,-7.1353,-7.1447,-7.1476,-7.1163,-7.1163,-7.1163,0,0,-7.0253,-7.0306,-7.037,-7.0499,-7.0549,-7.0652,-7.0566,-7.0679,-7.0755,-7.0706,-7.0849,-7.088,-7.0952,-7.1115,-7.1189,-7.1147,-7.1442,-7.1353,-7.1366,-7.1375,-7.1464,-7.1493,-7.152,-7.1173,-7.1171,-7.1169,0,0,-7.0454,-7.0505,-7.0634,-7.0686,-7.0763,-7.078,-7.0811,-7.088,-7.09,-7.1044,-7.1008,-7.1097,-7.126,-7.1312,-7.1359,-7.1577,-7.1544,-7.1606,-7.1718,-7.1809,-7.1834,-7.1856,-7.1932,-7.196,-7.1624,-7.1624,-7.1624,0,-7.0544,-7.0701,-7.0702,-7.0819,-7.0875,-7.0836,-7.0965,-7.1015,-7.1117,-7.1155,-7.1107,-7.131,-7.1355,-7.1529,-7.1582,-7.1623,-7.1656,-7.1598,-7.1831,-7.1853,-7.1873,-7.1945,-7.1974,-7.1631,-7.163,-7.1629,-7.1629,0,-7.0808,-7.0917,-7.1011,-7.1112,-7.1179,-7.1301,-7.1318,-7.1385,-7.1375,-7.1396,-7.1541,-7.1594,-7.1693,-7.1733,-7.1724,-7.1906,-7.1877,-7.183,-7.1744,-7.191,-7.1978,-7.2006,-7.1641,-7.1638,-7.1636,-7.1634,0,0,-7.1066,-7.1166,-7.12,-7.1245,-7.1326,-7.1409,-7.1528,-7.1626,-7.1682,-7.1753,-7.1851,-7.1989,-7.1946,-7.2,-7.1996,-7.2077,-7.2243,-7.2019,-7.2021,-7.2058,-7.2444,-7.2478,-7.2511,-7.2222,-7.2228,-7.2232,-7.2438,0,-7.1272,-7.1483,-7.1487,-7.1679,-7.1778,-7.1741,-7.1844,-7.1904,-7.1927,-7.2012,-7.2035,-7.2133,-7.2069,-7.2101,-7.2179,-7.2207,-7.2321,-7.2192,-7.2311,-7.2315,-7.2294,-7.2547,-7.2584,-7.2776,-7.2464,-7.2469,-7.2472,0,-7.1541,-7.1622,-7.1825,-7.1891,-7.1932,-7.2025,-7.2114,-7.2197,-7.2263,-7.2273,-7.2333,-7.2316,-7.2434,-7.2344,-7.2505,-7.2418,-7.2466,-7.2487,-7.2494,-7.2505,-7.2404,-7.2563,-7.2837,-7.2866,-7.2514,-7.2511,-7.2508,0,-7.1708,-7.1867,-7.2009,-7.2048,-7.2128,-7.2194,-7.223,-7.2291,-7.2349,-7.2425,-7.2462,-7.2551,-7.26,-7.2667,-7.2674,-7.2608,-7.2835,-7.2746,-7.2845,-7.2845,-7.2895,-7.2891,-7.318,-7.2928,-7.2927,-7.2927,-7.2926,0,-7.1937,-7.2062,-7.2084,-7.2172,-7.2309,-7.2311,-7.2447,-7.2477,-7.2531,-7.2621,-7.2593,-7.2678,-7.2682,-7.2768,-7.2773,-7.2905,-7.2927,-7.2937,-7.2937,-7.2939,-7.2938,-7.297,-7.2957,-7.2934,-7.2933,-7.2931,-7.293,0,-7.2147,-7.2167,-7.2318,-7.2382,-7.2401,-7.25,-7.2553,-7.2634,-7.2653,-7.2768,-7.2794,-7.2824,-7.2923,-7.2936,-7.3053,-7.3056,-7.3214,-7.32,-7.3192,-7.319,-7.3288,-7.3278,-7.3606,-7.3648,-7.337,-7.3373,-7.3375,0,-7.2292,-7.2387,-7.2461,-7.252,-7.256,-7.2656,-7.2715,-7.2719,-7.2781,-7.2862,-7.2933,-7.303,-7.3108,-7.3268,-7.3298,-7.3386,-7.3374,-7.3483,-7.3387,-7.3385,-7.3374,-7.3368,-7.3376,-7.3501,-7.3504,-7.3506,-7.3508,0,-7.2546,-7.2551,-7.2638,-7.2729,-7.28,-7.2871,-7.2938,-7.2987,-7.2999,-7.3069,-7.3172,-7.3232,-7.3351,-7.3446,-7.3533,-7.3567,-7.354,-7.3539,-7.3566,-7.3569,-7.356,-7.3565,-7.3242,-7.3531,-7.3529,-7.3527,-7.3526,-7.3525,-7.2727,-7.2809,-7.2874,-7.2971,-7.3022,-7.3084,-7.3164,-7.3193,-7.3279,-7.3377,-7.3373,-7.3485,-7.3545,-7.3659,-7.3699,-7.3785,-7.3749,-7.3789,-7.3799,-7.3808,-7.3817,-7.3547,-7.3801,-7.38,-7.3799,-7.3799,-7.3798,0,-7.2978,-7.3018,-7.3108,-7.3202,-7.3278,-7.3247,-7.3318,-7.3383,-7.3483,-7.3542,-7.3619,-7.3736,-7.3828,-7.3865,-7.3955,-7.4016,-7.4005,-7.4039,-7.4034,-7.4042,-7.3845,-7.3812,-7.4046,-7.4046,-7.4046,-7.4046,-7.4046,-7.4046,-7.3118,-7.3256,-7.3268,-7.3429,-7.3466,-7.3578,-7.3621,-7.3677,-7.3725,-7.3856,-7.3933,-7.3957,-7.4007,-7.41,-7.4182,-7.419,-7.4224,-7.4264,-7.4266,-7.4081,-7.4056,-7.4032,-7.4001,-7.4271,-7.4271,-7.4456,-7.4457,-7.4459]}]]